Location: ????????
(55.3155°N, 39.2900°E)
Time: 19:05:17
(UTC+00:00)

ACS3 Solar Sail - Pass Details

Date: 18 November 2025
Orbit: 889 x 1003 km, 97.3° (Epoch: 06 December)

Event Time Altitude Azimuth Distance (km) Brightness Sun altitude
Rises 01:23:48 0° 12° (NNE) 3,559 5.0 -30.5°
Reaches altitude 10° 01:26:12 10° 10° (N) 2,628 4.2 -30.1°
Enters shadow 01:30:13 44° 353° (N) 1,269 2.3 -29.6°
